Regional Weather Roundup
Issued by NWS Wakefield, VA

Home | Current Version | Previous Version | Text Only | Print | Product List | Glossary On
Versions: 1 2 3 4 5 6 7 8 9 10 11 12 13 14 15 16 17 18 19 20 21 22 23 24 25 26 27 28 29 30 31 32 33 34 35 36 37 38 39 40 41 42 43 44 45 46 47 48 49 50
000
ASUS41 KAKQ 201515
RWRAKQ

REGIONAL WEATHER ROUNDUP
NATIONAL WEATHER SERVICE WAKEFIELD VA
1000 AM EST SAT JAN 20 2018

Note: "fair" indicates few or no clouds below 12,000 feet with no
significant weather and/or obstructions to visibility. * = Denotes
station may not report precipitation (e.g., rain,snow,etc.),
thunder or fog.

VAZ042-051-052>054-056-201600-
NORTHERN VIRGINIA

CITY           SKY/WX    TMP DP  RH WIND       PRES   REMARKS
WASH NATIONAL  FAIR      38  22  52 S8        30.05R
DULLES         FAIR      40  18  41 S6        30.03S
FORT BELVOIR   FAIR      40  22  48 CALM        N/A
QUANTICO       NOT AVBL
FREDERICKSBRG* FAIR      44  26  49 CALM      30.04S
STAFFORD*      FAIR      43  17  34 CALM      30.08F
WARRENTON      FAIR      44  13  27 CALM      30.03S
CULPEPER*      FAIR      41  22  48 CALM      30.05S
MANASSAS*      FAIR      39  20  46 S6        30.05R
LEESBURG*      FAIR      48  28  46 W6        30.03S
WINCHESTER     FAIR      45  27  49 SW10      30.03S
FRONT ROYAL*   FAIR      46  28  49 S5        30.01S
LURAY*         FAIR      48  32  53 SW12G17   30.03F
$$

VAZ048-049-060>072-079>083-201600-
CENTRAL AND SOUTH CENTRAL VIRGINIA

CITY           SKY/WX    TMP DP  RH WIND       PRES   REMARKS
RICHMOND       FAIR      50  18  28 W10       30.08R
CHESTERFIELD*  NOT AVBL
PETERSBURG*    FAIR      46  18  31 SW9       30.10R
HANOVER        FAIR      49  19  30 SW12      30.08R
TAPPAHANNOCK*  FAIR      48  17  28 SW9       30.06R
QUINTON*       FAIR      46  19  34 S5        30.07S
CHARLOTTSVILLE FAIR      53  31  42 SW9       30.03S
GORDONSVILLE*  FAIR      50  30  45 SW7       30.05S
ORANGE*        FAIR      46  27  46 CALM      30.05S
LOUISA*        FAIR      49  21  34 W8        30.10S
BUMPASS*       FAIR      48  17  28 SW7       30.06R
FARMVILLE*     FAIR      49  28  44 SW7       30.09S
CREWE*         FAIR      46  24  41 W5        30.10R
FORT PICKETT*  FAIR      45  23  42 W9        30.10S
CHASE CITY*    FAIR      43  22  43 W5        30.13F
CLARKSVILLE*   FAIR      43  21  42 W6        30.15R
SOUTH HILL*    FAIR      43  22  44 W8        30.19R
LAWRENCEVILLE* FAIR      46  22  38 W8        30.12S
EMPORIA*       FAIR      45  25  45 SW9       30.15S
$$

VAZ088>098-201600-
SOUTHEAST VIRGINIA

CITY           SKY/WX    TMP DP  RH WIND       PRES   REMARKS
NORFOLK        FAIR      49  19  30 SW10      30.10S
VIRGINIA BEACH FAIR      49  18  29 SW12      30.11R
NORFOLK NAVAL  FAIR      49  20  31 W10       30.12S
WEST POINT*    FAIR      45  17  32 SW6       30.09F
SALUDA*        FAIR      46  18  32 W8        30.06F
NEWPORT NEWS   FAIR      45  23  42 SW9       30.10S
LANGLEY AFB    FAIR      46  23  40 W12       30.09F
FORT EUSTIS    FAIR      46  22  39 SW6       30.08S
WILLIAMSBURG*  FAIR      48  21  34 W12G17    30.10S
HR EXEC AP*    FAIR      48  21  34 SW8       30.13R
FRANKLIN*      FAIR      46  22  38 W8        30.14S
US460-WAKEFLD  FAIR      46  20  35 SW9G16    30.11S
$$

VAZ020-022-025-037-045-201600-
WEST CENTRAL AND SOUTHWEST VIRGINIA

CITY           SKY/WX    TMP DP  RH WIND       PRES   REMARKS
STAUNTON*      FAIR      48  32  54 S5        30.07S
WAYNESBORO*    FAIR      47  32  56 SW16G26   30.05F
HOT SPRINGS VA CLOUDY    36  29  75 W28G43    30.04R WCI  23
LYNCHBURG      FAIR      48  30  49 W9        30.09F
DANVILLE       FAIR      36  21  54 SW6       30.16S
SOUTH BOSTON*  FAIR      39  19  44 SW5       30.15S
MARTINSVILLE   FAIR      40  27  61 SE3       30.18S
ROANOKE        FAIR      48  31  51 S6        30.15S
BLACKSBURG     FAIR      45  33  64 W12       30.18S
DUBLIN*        CLOUDY    47  34  60 W15G22    30.19R
MARION*        CLOUDY    39  26  59 W14G20    30.22R
HILLSVILLE*    CLOUDY    42  33  68 W20G29    30.16R
RICHLANDS*     CLOUDY    38  29  69 SW8G20    30.21S
WISE*          CLOUDY    39  30  70 SW12      30.22R
ABINGDON*      CLOUDY    39  27  62 W3        30.26R
$$

MDZ021>025-VAZ099-100-201600-
SOUTHERN MARYLAND AND THE DELMARVA PENINSULA

CITY           SKY/WX    TMP DP  RH WIND       PRES   REMARKS
PATUXENT RIVER NOT AVBL
BAY BRIDGE APT FAIR      41  14  33 W3        30.04S
LEONARDTOWN    FAIR      43  14  31 W8        30.06R
DOVER          FAIR      44  24  44 SW10      30.01S
GEORGETOWN     FAIR      44  17  33 SW7       30.04R
EASTON         SUNNY     45  18  33 W7        30.08R
CAMBRIDGE      SUNNY     41  18  38 S6        30.05S
SALISBURY      FAIR      44  17  33 W12       30.05R
OCEAN CITY     FAIR      45  19  35 W9G21     30.05S
WALLOPS ISLAND FAIR      47  15  27 W13       30.06S
ACCOMACK*      FAIR      46  19  34 SW9G16    30.07S
$$

NCZ012>017-030>032-201600-
NORTH CENTRAL AND EASTERN NORTH CAROLINA

CITY           SKY/WX    TMP DP  RH WIND       PRES   REMARKS
ROANOKE RAPIDS FAIR      46  27  46 W7        30.16R
RALEIGH        FAIR      40  22  48 W5        30.19R
ELIZABETH CITY FAIR      47  36  65 SW10      30.15R
AHOSKIE*       FAIR      46  24  43 SW3       30.16R
EDENTON*       NOT AVBL
CURRITUCK*     FAIR      46  27  48 SW13      30.14S
KILL DEVIL HLS FAIR      45  25  44 SW8       30.15S
MANTEO         FAIR      42  31  64 CALM      30.17S
CAPE HATTERAS  FAIR      54  34  46 W12G18    30.20R
TARBORO*       NOT AVBL
GOLDSBORO      FAIR      44  21  40 SW10      30.18R
WASHINGTON     FAIR      46  23  39 SW9       30.19R
GREENVILLE     FAIR      45  23  42 SW7       30.19S
NEW BERN       FAIR      48  24  39 SW8       30.21S
WILMINGTON     FAIR      51  18  27 SW9       30.25R
$$

VAZ048-201600-
ELSEWHERE

CITY           SKY/WX    TMP DP  RH WIND       PRES   REMARKS
HARRISBURG PA  PTSUNNY   38  29  70 NW5       29.95S
BALTIMORE      FAIR      46  14  27 SW8       30.01S
ANNAPOLIS      FAIR      43  16  33 CALM      30.03S
ANDREWS AFB    FAIR      46  13  26 SW7       30.02R
PHILADELPHIA   PTSUNNY   44  23  43 SW16      29.98R
HENDERSON NC   FAIR      43  20  39 W7        30.16S
GREENSBORO     FAIR      45  29  53 NW9       30.17R
ROCKY MOUNT    NOT AVBL
$$

VAZ100-201600-
MARINE

STATION/POSITION TIME  TEMP    WIND        PRES    WAVE   SWELL
                       AIR SEA DIR/SP/G            HT/PER HT/PER
                 (UTC) (F)     (DEG/KT/KT) (MB)    (FT/S) (FT/S)
BRANDYWINE LGT   1436   37     260/ 12/ 13 1017.1R
CAPE MAY NJ      1436   37 33  250/  8/  9 1016.5R
LEWES DE         1436   43 34  280/  8/ 11 1016.7R
15NM E FENWICK I 1450   39 41  230/ 14/ 16 1017.5R   3/ 5   2/10
OCEAN-CITY-INLET 1436   42 35  270/  8/ 10 1017.7S
WACHAPREAGUE VA  1436   47 33  240/  7/ 12 1018.3R
THOMAS POINT MD  1500   36 32  180/  8/  9   N/A
GOOSES REEF MD   1500   36 33  190/  4/  6 1017.9    0
COVE POINT MD    1436   44     260/  5/  7 1017.9R
SOLOMONS ISLAND  1436   43 34  260/  5/  8 1017.1R
BISHOPS HEAD MD  1436   40 32  200/  5/  6 1018.1R
PINEY POINT MD   1448           10/  4/  4   N/A
POTOMAC MD       1500      33                N/A     0
CAMBRIDGE MD     1448   44 33              1018.2R
LEWISETTA VA     1448   43 32  270/ 10/ 13 1017.8R
RAPPAHANNOCK LGT 1448          180/ 12/ 13 1019.1R
STINGRAY PT      1500   40 33  250/ 10/ 12 1021.2    1
YORK RVR RNG VA  1442   42     260/ 13/ 14 1019.1F
YORKTOWN VA      1442   44 35  260/ 11/ 15 1018.4F
DOMINION TERM VA 1442   42     250/  9/ 11 1019.8R
KIPTOPEKE VA     1442      34  230/ 11/ 12   N/A
CAPE HENRY VA    1442   47     240/ 10/ 13   N/A
WILLOUBY STN VA  1442          230/ 11/ 12 1019.3S
S CRANEY ISL VA  1448   46     250/  8/ 12 1019.5R
CAPE HENRY BUOY  1430      39                N/A     2/10   2/11
1ST LANDING BUOY 1500   41 34  260/ 10/ 14 1019.3    1/ 3
CAPE CHARLES BUO 1451      39                N/A     2/10
64NM E OF VA BCH 1450   49 49  250/ 17/ 21 1020.5R   4/ 5   2/10
DUCK PIER NC     1442   41 39  240/ 10/ 12 1020.6S
44100 DUCK FRF   1445      41                N/A     2/13   2/13
44056 DUCK FRF   1430      39                N/A     2/13   2/13
OREGON INLET NC  1436   39 37  200/  9/ 11 1021.7F
HATTERAS NC      1442   53 46  240/ 10/ 16 1022.4R
DIAMOND SHLS NC  1450   60 69  250/ 19/ 23 1023.0R   4/ 5   2/10
CAPE LOOKOUT NC  1500          230/  9/ 11 1023.9R
$$



USA.gov is the U.S. government's official web portal to all federal, state and local government web resources and services.